Mount Carmel, IL

11:02 AM CDT on July 24, 2017 (GMT -0500)
Mount Carmel Municipal

Weather History for KAJG - November, 2012

Change the Weather History Date:

Thursday, November 22, 2012

  Actual Average (KLWV) Record (KLWV)
Temperature  
Mean Temperature 48 °F -  
Max Temperature 64 °F 50 °F 73 °F (1990)
Min Temperature 33 °F 32 °F 17 °F (2000)
Degree Days  
Heating Degree Days 16    
Moisture  
Dew Point 42 °F    
Average Humidity 75    
Maximum Humidity 100    
Minimum Humidity 45    
Precipitation  
Precipitation 0.06 in - - ()
Sea Level Pressure  
Sea Level Pressure 30.10 in    
Wind  
Wind Speed 5 mph (SSW)    
Max Wind Speed 18 mph    
Max Gust Speed 20 mph    
Visibility 6 miles    
Events Fog , Rain , Thunderstorm    
Averages and records for this station are not official NWS values.
T = Trace of Precipitation, MM = Missing Value Source: NWS Daily Summary

Daily Weather History Graph

Daily Weather History Graph

Search for Another Location

Airport or City:

Trip Planner

Search our weather history database for the weather conditions in past years. The results will help you decide how hot, cold, wet, or windy it might be!

Date:

Astronomy

Nov. 22, 2012 Rise Set
Actual Time 6:41 AM CST 4:33 PM CST
Civil Twilight 6:12 AM CST 5:01 PM CST
Nautical Twilight 5:39 AM CST 5:34 PM CST
Astronomical Twilight 5:08 AM CST 6:06 PM CST
Moon 1:15 PM CST (11/22) 1:04 AM CST (11/22)
Length of Visible Light 10h 49m
Length of Day
9h 52m
Waxing Gibbous, 71% of the Moon is Illuminated
Nov 22
Waxing Gibbous
Nov 28
Full
Dec 6
Last Quarter
Dec 13
New
Dec 19
First Quarter

Hourly Weather History & Observations

Time (CST) Temp. Windchill Dew Point Humidity Pressure Visibility Wind Dir Wind Speed Gust Speed Precip Events Conditions
12:15 AM 37.4 °F - 35.6 °F 93% 30.19 in 0.2 mi Calm Calm - N/A Fog Fog
12:35 AM 37.4 °F - 35.6 °F 93% 30.19 in 0.2 mi Calm Calm - N/A Fog Fog
12:55 AM 37.4 °F - 35.6 °F 93% 30.19 in 0.2 mi Calm Calm - N/A Fog Fog
1:15 AM 35.6 °F - 35.6 °F 100% 30.19 in 0.2 mi Calm Calm - N/A Fog Fog
1:35 AM 35.6 °F - 35.6 °F 100% 30.19 in 0.5 mi Calm Calm - N/A Fog Fog
1:55 AM 35.6 °F - 33.8 °F 93% 30.19 in 0.2 mi Calm Calm - N/A Fog Fog
2:15 AM 35.6 °F - 35.6 °F 100% 30.19 in 0.2 mi Calm Calm - N/A Fog Fog
2:35 AM 35.6 °F - 35.6 °F 100% 30.19 in 0.2 mi Calm Calm - N/A Fog Fog
2:55 AM 35.6 °F - 35.6 °F 100% 30.19 in 0.2 mi Calm Calm - N/A Fog Fog
3:15 AM 35.6 °F - 33.8 °F 93% 30.18 in 0.2 mi Calm Calm - N/A Fog Fog
3:35 AM 35.6 °F - 33.8 °F 93% 30.18 in 0.2 mi Calm Calm - N/A Fog Fog
3:55 AM 33.8 °F - 33.8 °F 100% 30.18 in 0.2 mi Calm Calm - N/A Fog Fog
4:15 AM 33.8 °F - 32.0 °F 93% 30.18 in 0.2 mi Calm Calm - N/A Fog Fog
4:35 AM 33.8 °F - 33.8 °F 100% 30.18 in 0.2 mi Calm Calm - N/A Fog Fog
4:55 AM 33.8 °F 30.8 °F 33.8 °F 100% 30.18 in 0.2 mi ESE 3.5 mph - N/A Fog Fog
5:15 AM 33.8 °F - 33.8 °F 100% 30.18 in 0.2 mi Calm Calm - N/A Fog Fog
5:35 AM 33.8 °F - 33.8 °F 100% 30.18 in 0.2 mi Calm Calm - N/A Fog Fog
5:55 AM 33.8 °F 30.8 °F 33.8 °F 100% 30.17 in 0.2 mi SE 3.5 mph - N/A Fog Fog
6:15 AM 33.8 °F - 33.8 °F 100% 30.18 in 0.5 mi Calm Calm - N/A Fog Fog
6:35 AM 35.6 °F - 33.8 °F 93% 30.18 in 0.5 mi Calm Calm - N/A Fog Fog
6:55 AM 37.4 °F - 35.6 °F 93% 30.18 in 0.2 mi Calm Calm - N/A Fog Fog
7:15 AM 37.4 °F - 37.4 °F 100% 30.18 in 0.2 mi Calm Calm - N/A Fog Fog
7:35 AM 37.4 °F 34.9 °F 37.4 °F 100% 30.18 in 0.2 mi ESE 3.5 mph - N/A Fog Fog
7:55 AM 41.0 °F 39.0 °F 41.0 °F 100% 30.17 in 0.8 mi SE 3.5 mph - N/A   Mist
8:15 AM 46.4 °F 45.2 °F 44.6 °F 93% 30.17 in 2.0 mi SE 3.5 mph - N/A   Clear
8:35 AM 48.2 °F - 46.4 °F 93% 30.17 in 4.0 mi South 8.1 mph - N/A   Clear
8:55 AM 50.0 °F - 50.0 °F 100% 30.16 in 5.0 mi South 10.4 mph - N/A   Clear
9:15 AM 51.8 °F - 51.8 °F 100% 30.16 in 5.0 mi South 11.5 mph - N/A   Clear
9:35 AM 55.4 °F - 50.0 °F 82% 30.16 in 7.0 mi South 10.4 mph - N/A   Clear
9:55 AM 59.0 °F - 46.4 °F 63% 30.15 in 7.0 mi South 11.5 mph - N/A   Clear
10:15 AM 59.0 °F - 46.4 °F 63% 30.14 in 10.0 mi South 15.0 mph - N/A   Clear
10:35 AM 59.0 °F - 46.4 °F 63% 30.14 in 7.0 mi South 15.0 mph - N/A   Clear
10:55 AM 60.8 °F - 46.4 °F 59% 30.13 in 10.0 mi South 13.8 mph - N/A   Clear
11:15 AM 60.8 °F - 46.4 °F 59% 30.12 in 10.0 mi South 12.7 mph - N/A   Clear
11:35 AM 62.6 °F - 46.4 °F 55% 30.11 in 10.0 mi SSW 11.5 mph - N/A   Clear
11:55 AM 62.6 °F - 44.6 °F 52% 30.10 in 10.0 mi South 13.8 mph - N/A   Clear
12:15 PM 62.6 °F - 44.6 °F 52% 30.09 in 10.0 mi SSW 15.0 mph - N/A   Clear
12:35 PM 62.6 °F - 44.6 °F 52% 30.08 in 10.0 mi South 15.0 mph - N/A   Clear
12:55 PM 64.4 °F - 44.6 °F 49% 30.08 in 10.0 mi SSW 15.0 mph - N/A   Clear
1:15 PM 64.4 °F - 42.8 °F 45% 30.07 in 10.0 mi SSW 12.7 mph - N/A   Clear
1:35 PM 64.4 °F - 44.6 °F 49% 30.06 in 10.0 mi South 11.5 mph 18.4 mph N/A   Clear
1:55 PM 64.4 °F - 42.8 °F 45% 30.06 in 10.0 mi SSW 12.7 mph 18.4 mph N/A   Clear
2:15 PM 64.4 °F - 42.8 °F 45% 30.05 in 10.0 mi SSW 17.3 mph - N/A   Clear
2:35 PM 64.4 °F - 42.8 °F 45% 30.04 in 10.0 mi South 10.4 mph - N/A   Clear
2:55 PM 62.6 °F - 42.8 °F 48% 30.04 in 10.0 mi South 15.0 mph - N/A   Clear
3:15 PM 62.6 °F - 42.8 °F 48% 30.04 in 10.0 mi South 10.4 mph - N/A   Clear
3:35 PM 62.6 °F - 44.6 °F 52% 30.04 in 10.0 mi South 9.2 mph - N/A   Clear
3:55 PM 62.6 °F - 44.6 °F 52% 30.03 in 10.0 mi South 9.2 mph - N/A   Clear
4:15 PM 60.8 °F - 44.6 °F 55% 30.03 in 10.0 mi South 9.2 mph - N/A   Clear
4:35 PM 59.0 °F - 42.8 °F 55% 30.03 in 10.0 mi South 8.1 mph - N/A   Clear
4:55 PM 59.0 °F - 42.8 °F 55% 30.03 in 10.0 mi South 8.1 mph - N/A   Clear
5:15 PM 59.0 °F - 42.8 °F 55% 30.03 in 10.0 mi South 10.4 mph - N/A   Clear
5:35 PM 57.2 °F - 44.6 °F 63% 30.02 in 10.0 mi South 8.1 mph - N/A   Clear
5:55 PM 57.2 °F - 42.8 °F 59% 30.02 in 10.0 mi South 9.2 mph - N/A   Clear
6:15 PM 59.0 °F - 42.8 °F 55% 30.02 in 10.0 mi South 13.8 mph - N/A   Clear
6:35 PM 59.0 °F - 42.8 °F 55% 30.01 in 10.0 mi South 12.7 mph - N/A   Clear
6:55 PM 59.0 °F - 42.8 °F 55% 30.00 in 10.0 mi South 15.0 mph 19.6 mph N/A Thunderstorm Clear
7:15 PM 59.0 °F - 42.8 °F 55% 30.00 in 10.0 mi SSW 13.8 mph - N/A   Clear
7:35 PM 59.0 °F - 42.8 °F 55% 30.00 in 10.0 mi SSW 13.8 mph 18.4 mph N/A   Scattered Clouds
7:55 PM 59.0 °F - 42.8 °F 55% 30.01 in 10.0 mi SSW 12.7 mph - N/A   Scattered Clouds
8:15 PM 59.0 °F - 42.8 °F 55% 30.00 in 10.0 mi SSW 15.0 mph 19.6 mph N/A Thunderstorm Overcast
8:35 PM 59.0 °F - 44.6 °F 59% 30.00 in 10.0 mi SSW 18.4 mph - N/A Rain Light Rain
8:55 PM 57.2 °F - 46.4 °F 67% 30.02 in 10.0 mi SW 13.8 mph - N/A Rain Light Rain
9:15 PM 55.4 °F - 50.0 °F 82% 30.03 in 7.0 mi WSW 12.7 mph 17.3 mph N/A Rain Rain
9:35 PM 55.4 °F - 50.0 °F 82% 30.03 in 10.0 mi WSW 6.9 mph - N/A   Mostly Cloudy
9:55 PM 53.6 °F - 50.0 °F 88% 30.03 in 10.0 mi WSW 5.8 mph - N/A   Overcast
10:15 PM 55.4 °F - 50.0 °F 82% 30.03 in 10.0 mi SW 5.8 mph - N/A   Overcast
10:35 PM 55.4 °F - 50.0 °F 82% 30.03 in 10.0 mi SW 6.9 mph - N/A   Overcast
10:55 PM 55.4 °F - 50.0 °F 82% 30.02 in 10.0 mi SW 6.9 mph - N/A Rain Light Rain
11:15 PM 55.4 °F - 50.0 °F 82% 30.03 in 10.0 mi WSW 11.5 mph - 0.01 in Rain Light Rain
11:35 PM 55.4 °F - 51.8 °F 88% 30.02 in 10.0 mi WSW 13.8 mph - 0.02 in Rain Light Rain
11:55 PM 55.4 °F - 51.8 °F 88% 30.02 in 7.0 mi WSW 12.7 mph - 0.06 in Rain Rain